RH
42 61 70 31 30 20 18 16 16 16 14 13 14 14 12 12 9 9 5 6 16 26 28 37 36 38 96 72 76 71 69 25 13 16 15 13 12 14 15 13 11 9 16 27
61 46 43 39 27 19 19 19 18 16 13 13 13 13 11 11 10 9 5 5 19 34 36 41 26 41 95 82 77 80 71 20 14 17 15 14 16 15 12 12 8 7 25 47
98 86 84 64 25 20 22 21 19 16 14 13 14 12 11 10 9 8 8 9 33 38 40 40 25 36 73 82 85 82 68 13 15 18 15 17 15 11 20 33 23 25 41 74
82 42 47 38 29 24 24 22 18 15 15 16 15 10 9 10 10 11 16 27 50 45 46 35 27 44 65 78 95 81 48 13 18 16 19 17 13 11 32 38 37 40 92 96
94 91 60 50 48 71 52 22 18 17 16 15 13 11 9 13 29 42 40 56 67 54 51 26 45 72 85 91 87 75 23 16 20 17 21 17 15 11 30 40 42 43 49 94
100 94 98 95 65 50 37 23 21 18 17 14 14 12 20 28 49 55 62 79 67 66 55 28 55 93 89 98 77 51 16 20 19 19 22 19 16 14 11 32 34 34 35 33
100 100 80 67 42 30 28 25 22 20 16 14 11 10 53 54 61 81 75 58 56 68 34 50 99 92 94 82 57 47 21 21 20 20 22 20 17 14 13 12 21 26 25 24
82 97 91 63 38 32 29 27 24 19 16 13 13 27 59 61 58 67 69 61 54 35 40 82 97 98 98 87 72 58 30 21 21 20 22 20 18 15 12 13 8 13 19 31
63 74 73 75 54 33 31 29 26 22 17 13 24 31 66 68 64 67 87 52 52 65 82 95 100 93 89 97 83 67 42 21 22 20 20 20 20 16 13 13 15 10 8 14
55 56 58 47 37 36 34 28 25 22 20 16 28 66 80 76 63 72 75 48 79 96 100 99 98 95 99 100 86 68 55 20 22 25 22 19 22 17 13 11 15 19 19 17
61 58 57 48 43 40 36 32 24 21 19 27 54 80 99 87 65 70 74 50 77 96 97 97 100 98 96 100 99 73 50 20 19 24 24 20 20 26 21 19 18 16 15 16
84 70 59 60 55 50 54 43 31 24 42 72 72 88 96 99 89 82 83 62 55 76 91 98 97 97 92 100 99 86 52 58 67 21 22 29 25 27 30 26 26 27 29 28
98 83 79 58 50 58 74 86 50 32 37 67 84 92 100 96 100 99 90 61 55 96 100 100 96 98 97 96 100 90 53 74 72 34 24 33 38 34 34 36 30 31 32 35
90 92 72 64 54 82 84 82 52 47 73 71 100 89 99 94 99 100 96 75 86 96 100 97 95 96 100 100 87 64 66 76 81 72 60 49 44 45 42 48 44 38 36 39
82 99 98 89 73 74 87 74 72 46 55 91 100 78 98 93 98 99 98 80 86 97 98 98 96 95 94 98 98 97 93 96 95 99 93 90 79 69 55 53 55 53 48 42
100 100 100 100 100 94 92 83 65 53 42 68 80 92 79 90 98 98 98 95 85 93 96 100 100 94 98 97 92 98 98 97 93 93 96 97 97 96 95 90 91 91 86 76
100 100 98 98 99 100 84 44 42 37 41 57 88 84 83 88 98 98 98 99 98 74 85 91 97 91 100 96 97 98 94 95 96 96 97 96 97 96 84 94 97 99 100 98
100 93 95 72 66 91 63 49 39 31 22 17 14 48 62 78 95 98 96 97 94 96 78 96 98 94 94 97 95 90 87 90 94 89 94 99 91 94 92 91 92 97 96 92
98 100 96 72 73 85 59 46 48 36 20 21 34 11 15 95 97 99 98 95 98 99 98 98 96 96 97 98 92 96 98 95 90 96 98 96 93 90 85 86 88 89 90 90
84 71 73 69 68 61 56 52 61 49 19 15 18 51 67 100 98 100 97 95 94 94 99 100 100 87 86 95 97 98 95 98 97 96 98 90 97 91 90 93 89 83 76 73
69 56 48 46 42 40 35 48 62 42 24 17 26 69 68 90 100 100 100 99 99 99 96 96 97 99 98 82 98 100 98 98 100 92 91 89 100 98 98 98 90 73 64 59
46 46 41 38 31 29 35 58 60 42 21 12 22 62 80 100 100 99 100 98 96 97 99 95 97 98 97 98 98 99 99 98 100 100 99 99 98 98 98 99 96 92 78 57
64 51 45 42 35 38 50 51 44 30 20 12 12 58 74 100 100 100 100 100 100 100 99 99 96 97 98 100 98 98 97 98 99 98 100 98 98 98 94 89 88 76 58 43
96 67 52 34 40 44 30 24 25 21 15 12 8 77 100 99 100 100 100 99 99 100 99 99 98 98 98 99 98 97 97 98 98 99 95 92 79 53 45 52 47 40 24 15
80 83 64 44 41 38 43 44 27 18 14 6 6 51 100 100 100 100 100 100 100 100 100 100 99 100 100 99 99 100 99 98 97 97 96 98 81 63 45 32 31 29 22 18
88 96 57 34 52 69 72 73 74 51 23 12 9 99 100 100 100 99 100 100 100 100 100 100 100 99 97 85 73 63 65 73 74 68 58 53 50 36 24 23 23 23 21 19
Wind_Speed
40 41 35 35 37 39 37 37 37 35 35 34 34 35 37 41 37 41 37 37 37 39 37 35 31 31 29 26 25 27 27 29 23 21 17 18 19 22 25 28 30 27 25 24
42 42 37 37 36 38 36 36 35 36 35 36 34 35 39 37 38 42 40 40 38 41 40 34 29 31 30 28 27 28 28 28 20 19 15 15 19 26 28 25 24 25 22 24
31 33 34 36 36 36 35 35 34 35 33 33 36 39 34 34 37 42 41 38 36 43 39 35 32 29 27 31 31 29 29 22 19 17 14 16 19 18 19 18 14 17 16 21
36 32 35 37 35 34 34 33 33 32 32 32 33 35 32 33 38 43 37 35 36 43 39 36 32 25 28 30 30 30 28 18 19 16 14 15 13 13 13 7 4 7 10 13
32 37 36 35 30 35 32 31 31 31 30 32 28 31 33 31 36 30 32 30 35 39 37 34 27 25 26 28 27 28 25 16 18 16 13 13 12 10 8 3 3 0 4 6
34 33 30 28 31 33 33 32 30 30 30 29 26 31 25 24 22 27 26 30 37 36 33 31 27 27 28 29 25 23 22 17 18 17 13 12 10 7 5 4 2 2 2 1
29 28 30 32 31 30 31 30 30 31 30 26 26 27 16 13 18 13 20 27 35 36 34 30 29 26 23 29 25 22 20 20 19 19 14 11 9 7 6 4 2 3 4 5
33 31 33 32 30 30 29 31 28 29 29 23 24 19 14 11 17 24 26 29 31 35 35 31 30 35 24 29 27 24 23 22 20 20 16 10 10 7 6 7 5 2 1 3
34 34 34 33 31 30 29 28 28 28 27 24 20 19 18 17 16 19 29 34 33 35 32 32 31 31 29 35 31 29 24 25 21 19 17 13 9 9 6 7 7 6 4 2
35 34 33 32 31 29 28 27 26 26 24 24 17 16 17 17 19 14 31 36 37 35 33 31 29 32 25 33 32 31 26 25 22 20 18 15 11 7 6 5 5 6 7 5
36 35 32 31 29 28 26 24 24 23 22 22 16 16 14 17 21 23 27 39 41 36 36 35 35 34 30 34 33 31 28 23 22 21 17 15 14 11 10 7 4 5 8 9
35 35 31 27 30 28 23 21 21 20 21 20 18 12 14 14 18 21 29 40 41 40 38 38 37 34 36 35 36 34 30 24 20 19 17 16 16 14 12 13 10 7 5 5
32 35 28 30 30 30 24 21 21 21 21 21 21 14 13 16 10 11 27 37 41 38 37 39 39 33 38 38 38 38 29 23 20 18 19 19 17 17 16 15 16 14 11 9
33 27 30 28 30 27 23 22 23 21 20 20 20 22 18 19 15 11 24 37 38 36 38 35 34 32 39 38 38 29 24 22 21 23 21 20 20 21 21 20 19 18 17 16
23 33 35 31 29 27 24 22 25 23 26 24 18 16 23 23 28 14 15 29 37 34 35 27 33 38 40 40 38 32 28 25 24 24 24 24 24 25 25 24 22 21 22 22
34 30 22 27 28 24 21 21 23 25 28 24 25 17 27 24 28 15 20 21 34 36 36 31 31 34 36 39 39 34 31 27 28 26 25 26 31 31 32 27 25 22 26 26
31 23 32 24 19 20 24 21 22 21 23 24 23 25 24 24 26 20 18 23 26 40 42 41 39 39 41 35 37 36 31 29 28 27 26 25 33 22 17 22 26 25 27 25
21 12 17 23 30 22 18 19 19 16 19 21 21 22 23 23 22 27 18 19 21 32 26 38 42 42 42 40 35 34 32 34 31 32 34 39 24 21 21 20 20 23 22 25
11 9 14 22 25 23 17 17 20 15 21 16 15 19 22 19 16 20 20 22 20 19 17 29 35 37 39 40 39 36 45 43 35 36 43 25 25 25 25 28 28 29 29 30
12 13 14 16 18 19 20 21 21 18 18 18 15 13 16 16 14 17 17 16 20 24 22 22 26 37 42 44 42 46 45 42 42 39 42 41 38 31 34 33 32 32 32 32
16 19 20 23 19 20 23 24 19 20 18 18 15 14 16 18 16 16 20 19 24 30 28 27 31 29 45 49 49 53 50 55 48 45 46 47 53 37 35 39 32 33 34 34
28 25 22 21 23 23 25 23 21 20 18 17 16 17 14 15 14 15 19 22 22 25 28 27 32 30 30 33 39 49 49 49 49 48 46 43 35 35 38 38 34 36 38 38
15 18 18 20 22 24 25 22 21 19 18 17 18 20 20 15 8 9 17 23 24 23 27 30 33 34 38 39 40 45 39 37 42 37 37 37 29 26 28 30 34 38 40 41
12 16 17 22 26 22 20 19 18 17 16 17 17 18 15 19 15 20 27 27 24 23 24 21 23 25 26 27 29 29 26 25 23 22 22 23 23 26 30 33 37 38 40 43
10 15 19 21 18 18 15 14 14 16 17 17 19 21 16 12 12 18 24 30 28 24 23 21 21 21 20 20 21 19 21 21 24 25 27 28 31 35 38 40 40 42 43 44
4 4 8 12 11 9 7 12 11 13 15 15 21 20 23 14 13 16 17 16 23 26 26 23 20 21 17 17 20 23 26 29 30 31 31 33 35 37 38 39 40 41 43 45
Wind_Direction
237 245 248 248 247 249 247 251 256 255 257 252 256 264 269 273 278 281 280 281 269 251 239 243 245 249 258 262 263 272 282 272 245 248 258 271 277 281 285 285 281 278 279 268
230 237 242 248 249 250 251 250 253 254 254 257 260 261 266 275 280 278 279 281 265 239 235 235 236 239 243 259 270 271 277 264 240 248 260 269 277 288 290 283 272 268 266 263
239 242 246 247 250 253 254 253 251 251 252 259 261 261 273 280 281 280 277 274 253 233 231 230 227 226 232 254 263 267 272 245 238 247 256 268 286 285 296 287 267 259 252 243
234 239 245 246 249 253 250 254 252 253 256 259 264 269 281 280 282 279 269 255 235 229 229 225 219 211 229 242 251 258 262 228 233 240 252 279 292 296 311 311 240 236 250 211
246 233 235 245 251 252 257 257 256 257 259 261 275 281 285 289 280 264 251 232 221 226 228 216 205 206 229 239 240 251 248 215 230 232 254 278 295 302 321 11 76 53 287 226
241 238 246 245 246 249 252 256 258 259 262 267 280 280 293 286 269 242 225 216 213 221 217 210 208 208 229 227 234 243 226 214 225 226 249 272 289 298 309 287 197 172 175 160
246 240 244 244 246 249 250 255 260 263 265 269 276 283 292 263 227 225 248 233 223 219 207 202 208 221 237 224 222 234 219 217 221 222 237 267 283 291 294 285 248 229 229 206
242 241 239 241 245 247 251 255 260 261 262 267 270 286 258 222 225 246 263 225 208 199 201 204 210 218 222 217 231 235 226 219 219 223 232 256 274 286 289 289 283 266 252 257
234 236 238 241 244 247 250 255 256 257 259 263 274 275 258 227 245 267 227 213 208 203 202 206 218 224 225 207 222 235 230 222 218 224 227 238 260 276 277 279 283 300 277 255
230 234 235 240 242 246 249 252 254 253 257 259 270 265 257 239 238 245 219 210 206 205 206 207 219 227 201 209 218 229 233 229 221 221 226 230 240 252 265 281 287 290 295 291
235 235 235 239 244 246 247 249 247 250 256 262 264 258 254 242 232 236 221 211 209 211 214 211 223 221 202 204 219 229 235 227 227 227 225 227 237 241 242 234 271 302 302 298
242 243 242 243 245 242 241 242 249 245 250 264 258 250 245 248 242 236 221 211 210 212 217 219 221 210 207 208 215 228 234 228 232 236 233 234 238 245 250 249 245 250 275 302
243 243 243 242 241 245 240 238 240 245 251 256 256 248 233 233 224 216 215 209 211 213 213 216 219 219 203 209 215 227 232 229 237 242 238 238 242 245 248 247 244 245 252 256
238 246 242 238 237 240 243 241 241 239 241 237 256 243 237 224 175 202 199 212 213 215 213 214 220 216 200 211 219 228 229 232 235 236 236 238 244 247 246 244 240 239 246 252
227 238 237 234 235 237 242 241 242 239 239 237 239 250 255 242 228 197 192 215 219 211 210 208 213 198 204 214 221 226 232 236 240 238 239 241 241 244 246 248 247 246 248 247
227 233 192 229 221 226 228 237 241 243 242 246 242 242 255 255 235 242 178 195 216 210 208 218 225 223 215 219 225 228 225 231 234 238 242 255 257 251 250 249 258 267 259 259
214 209 220 227 218 225 230 237 241 244 251 250 248 252 257 271 267 240 213 170 200 223 228 228 227 228 227 219 227 231 230 236 243 247 256 269 264 245 241 247 255 271 268 279
217 214 230 244 248 246 253 249 250 251 258 254 252 248 263 270 278 263 243 195 209 164 223 218 218 227 232 228 231 230 238 242 250 253 260 265 243 244 246 244 246 257 257 261
231 224 221 226 228 241 261 259 253 250 260 255 253 240 255 264 247 263 247 238 197 234 224 233 227 234 241 238 233 233 230 240 243 255 255 239 256 252 258 258 257 264 267 265
235 250 242 242 232 248 255 257 257 258 256 254 245 239 241 241 223 245 247 250 252 238 216 214 236 246 242 237 238 233 241 240 239 245 247 263 259 256 259 260 265 269 267 265
249 255 264 266 263 257 269 264 254 252 250 250 246 237 242 239 239 254 230 224 227 223 225 225 223 228 229 228 234 241 246 239 239 250 254 255 256 251 258 260 262 267 270 271
245 256 260 265 270 267 263 253 250 242 242 248 243 232 243 240 225 237 230 241 240 231 226 231 238 240 238 235 226 231 224 231 237 244 249 240 243 253 253 255 260 265 263 264
232 241 245 256 261 259 250 247 242 240 239 246 241 235 237 227 225 193 203 199 213 223 230 234 237 239 242 243 244 244 250 242 244 242 245 252 252 256 264 269 268 270 274 275
217 225 233 245 241 233 233 235 231 232 234 237 242 230 265 268 244 202 198 201 205 216 225 229 229 233 238 240 243 245 240 241 246 255 263 264 266 268 269 273 280 281 278 275
214 224 221 225 220 217 228 240 242 240 240 237 234 228 252 276 195 190 202 209 220 231 225 225 229 233 237 246 251 255 256 267 268 267 270 269 270 272 274 276 275 274 272 270
238 273 264 242 227 201 231 224 246 264 263 245 226 226 239 263 258 239 245 229 221 221 226 223 232 243 258 272 281 285 287 286 286 285 283 280 281 280 278 276 275 273 272 272